Location: ?
(35.3544°N, 139.4507°E)
Time: 23:36:03
(UTC+00:00)

Cosmos 2237 Rocket - Pass Details

Date: 03 August 2024
Orbit: 835 x 848 km, 71.0° (Epoch: 18 September)

Event Time Altitude Azimuth Distance (km) Brightness Sun altitude
Exits shadow 17:48:10 13° 159° (SSE) 2,262 4.2 -22.3°
Maximum altitude 17:52:24 30° 103° (ESE) 1,461 3.7 -21.7°
Drops below altitude 10° 17:57:14 10° 44° (NE) 2,458 5.8 -21.0°
Sets 17:59:56 0° 34° (NNE) 3,395 6.7 -20.5°
